Regional Weather Roundup
Issued by NWS Midland/Odessa, TX

Home | Current Version | Previous Version | Text Only | Print | Product List | Glossary On
Versions: 1 2 3 4 5 6 7 8 9 10 11 12 13 14 15 16 17 18 19 20 21 22 23 24 25 26 27 28 29 30 31 32 33 34 35 36 37 38 39 40 41 42 43 44 45 46 47 48 49 50
000
ASUS44 KMAF 281710
RWRMAF
MIDLAND AREA WEATHER ROUNDUP
NATIONAL WEATHER SERVICE MIDLAND TX
1200 PM CDT FRI APR 28 2017

...IN SOUTHWEST TEXAS AND SOUTHEAST NEW MEXICO...

CITY           SKY/WX    TMP DP  RH WIND       PRES   REMARKS
ALPINE         MOSUNNY   81  34  18 SW9G20    29.83F
ANDREWS        FAIR      77  35  21 SE12G18   29.69F
ARTESIA        CLOUDY    70  34  26 SE13      29.68S
BIG SPRING     SUNNY     76  46  34 E10       29.69F
CARLSBAD       CLOUDY    74  34  23 SE14G23   29.66F
DRYDEN           N/A     79  61  53 SW6       29.66R
FORT STOCKTON  SUNNY     84  41  21 MISG      29.69F
GUAD PASS      CLOUDY    70  34  26 SW35G54   29.74S
HOBBS          SUNNY     75  30  19 SE13      29.70F
MARFA          SUNNY     79  34  19 W9G21     29.81F
MIDLAND AIRPK  SUNNY     80  41  25 E8        29.69S
MIDLAND INTL   SUNNY     79  41  25 E12       29.67F
ODESSA         SUNNY     79  38  22 E10       29.69F
PECOS          SUNNY     81  39  22 E5        29.65F
PRESIDIO       FAIR      83  37  18 CALM      29.73F
SEMINOLE       SUNNY     73  36  25 SE10G17   29.70F
SNYDER         SUNNY    N/A N/A N/A E9        29.67S
WINK           SUNNY     81  35  19 E6        29.65F
$$
...OTHER STATIONS IN TEXAS...

CITY           SKY/WX    TMP DP  RH WIND       PRES   REMARKS
ABILENE        PTSUNNY   68  53  58 VRB5      29.66S
AMARILLO       MOSUNNY   65  39  38 VRB3      29.66F
AUSTIN         MOSUNNY   85  69  58 S13       29.63F
BROWNSVILLE    SUNNY     90  74  59 S24G35    29.61F
CORPUS CHRISTI CLOUDY    87  74  64 S24       29.60F
DALLAS FTW     CLOUDY    80  67  64 S13       29.62S
DEL RIO        CLOUDY    79  69  71 S5        29.61S
EL PASO        PTSUNNY   76  34  21 SW26G36   29.71F
HOUSTON INT    PTSUNNY   87  72  60 S21       29.70S
LUBBOCK        CLOUDY    73  40  30 SE12      29.67S
SAN ANGELO     CLOUDY    85  60  42 W9        29.64R
SAN ANTONIO    PTSUNNY   81  69  67 S8        29.64S
WACO           SUNNY     82  69  64 S18G28    29.62S
WICHITA FALLS  NOT AVBL
$$
...OTHER LOCATIONS IN NEW MEXICO...

CITY           SKY/WX    TMP DP  RH WIND       PRES   REMARKS
ALAMOGORDO     SUNNY     73  36  25 SW15G23   29.71F
ALBUQUERQUE    CLOUDY    42  36  79 N18       29.75S WCI  34
CANNON AFB     CLOUDY    66  30  25 S13       29.67F
CLOVIS         PTSUNNY   68  34  28 S9G18     29.69S
HOLLOMAN AFB   MOSUNNY   75  37  24 SW16G26   29.73F
ROSWELL        MOSUNNY   68  29  23 SE9       29.67F
RUIDOSO        CLOUDY    61  34  36 W26G37    29.76F
SANTA FE       LGT SNOW  32  32 100 N6        29.76F VSB 3/4 WCI  26
TRUTH OR CONSE PTSUNNY   70  34  26 W21G36    29.67F
TUCUMCARI      PTSUNNY   63  27  25 E3        29.65F
$$




USA.gov is the U.S. government's official web portal to all federal, state and local government web resources and services.